Location: Cahas Mountain Overlook
(37.0833°N, 80.1000°W)
Time: 01:45:51
(UTC-05:00)

A-11 Canister half - Pass Details

Date: 02 December 2023
Orbit: 1512 x 1687 km, 47.2° (Epoch: 01 March)

Event Time Altitude Azimuth Distance (km) Brightness Sun altitude
Exits shadow 02:13:24 19° 54° (NE) 3,241 10.9 -59.3°
Drops below altitude 10° 02:15:39 10° 58° (ENE) 3,916 11.4 -58.9°
Sets 02:18:54 0° 61° (ENE) 4,920 12.1 -58.3°
